Helena, Arkansas, United States (72342)
Lat: 34.53N, Lon: 90.59W
Wx Zone: ARZ058
Local Info
Past Weather Observations for Sunday, August 21, 2016

NOTE: This archive is for the closest National Weather Service station to Helena. Information may differ from the station used for current weather conditions.

Click here for Long-term Archive

Time Weather Temperature Dewpoint Humidity Pressure Winds Precip Visibility
13:55
Partly Cloudy
79°F / 26°C 68°F / 20°C 70% 30.04 in
(1017 mb)
Calm - 10SM
13:35
Partly Cloudy
79°F / 26°C 68°F / 20°C 70% 30.04 in
(1017 mb)
N 5.8 mph
(N 9 kph)
- 10SM
13:15
Clear
79°F / 26°C 70°F / 21°C 74% 30.04 in
(1017 mb)
NNE 4.6 mph
(NNE 7 kph)
- 10SM
12:55
Partly Cloudy
79°F / 26°C 70°F / 21°C 74% 30.04 in
(1017 mb)
N 5.8 mph
(N 9 kph)
- 10SM
12:35
Mostly Cloudy
77°F / 25°C 70°F / 21°C 79% 30.06 in
(1018 mb)
NNE 6.9 mph
(NNE 11 kph)
- 10SM
12:15
Partly Cloudy
77°F / 25°C 70°F / 21°C 79% 30.06 in
(1018 mb)
NE 3.5 mph
(NE 6 kph)
- 10SM
11:55
Overcast
77°F / 25°C 70°F / 21°C 79% 30.06 in
(1018 mb)
NNE 5.8 mph
(NNE 9 kph)
- 10SM
11:35
Overcast
77°F / 25°C 70°F / 21°C 79% 30.06 in
(1018 mb)
NE 5.8 mph
(NE 9 kph)
- 10SM
11:15
Overcast
75°F / 24°C 70°F / 21°C 83% 30.06 in
(1018 mb)
NE 4.6 mph
(NE 7 kph)
- 10SM
10:55
Overcast
75°F / 24°C 68°F / 20°C 78% 30.06 in
(1018 mb)
NNE 4.6 mph
(NNE 7 kph)
- 10SM
10:35
Overcast
75°F / 24°C 68°F / 20°C 78% 30.06 in
(1018 mb)
NE 5.8 mph
(NE 9 kph)
- 10SM
10:15
Overcast
73°F / 23°C 68°F / 20°C 83% 30.06 in
(1018 mb)
N 10.4 mph
(N 17 kph)
- 10SM
09:55
Overcast
73°F / 23°C 68°F / 20°C 83% 30.06 in
(1018 mb)
N 8.1 mph
(N 13 kph)
- 10SM
09:35
Overcast
73°F / 23°C 68°F / 20°C 83% 30.04 in
(1017 mb)
N 9.2 mph
(N 15 kph)
- 10SM
09:15
Mostly Cloudy
73°F / 23°C 68°F / 20°C 83% 30.04 in
(1017 mb)
N 9.2 mph
(N 15 kph)
- 10SM
08:55
Mostly Cloudy
73°F / 23°C 68°F / 20°C 83% 30.04 in
(1017 mb)
N 11.5 mph
(N 19 kph)
- 10SM
08:35
Overcast
73°F / 23°C 68°F / 20°C 83% 30.04 in
(1017 mb)
N 8.1 mph
(N 13 kph)
- 10SM
08:15
Mostly Cloudy
72°F / 22°C 68°F / 20°C 88% 30.01 in
(1016 mb)
N 10.4 mph
(N 17 kph)
- 10SM
07:55
Partly Cloudy
72°F / 22°C 68°F / 20°C 88% 30.01 in
(1016 mb)
N 8.1 mph
(N 13 kph)
- 10SM
07:35
Overcast
72°F / 22°C 68°F / 20°C 88% 30.01 in
(1016 mb)
N 8.1 mph
(N 13 kph)
- 10SM
07:15
Overcast
72°F / 22°C 70°F / 21°C 94% 30.01 in
(1016 mb)
N 8.1 mph
(N 13 kph)
- 10SM
06:55
Overcast
70°F / 21°C 70°F / 21°C 100% 30.01 in
(1016 mb)
N 8.1 mph
(N 13 kph)
- 10SM
06:35
Overcast
70°F / 21°C 70°F / 21°C 100% 29.98 in
(1015 mb)
N 8.1 mph
(N 13 kph)
- 10SM
06:15
Mostly Cloudy
70°F / 21°C 70°F / 21°C 100% 29.98 in
(1015 mb)
NNW 9.2 mph
(NNW 15 kph)
- 10SM
05:55
Partly Cloudy
70°F / 21°C 68°F / 20°C 94% 29.98 in
(1015 mb)
NNW 9.2 mph
(NNW 15 kph)
- 10SM
05:35
Partly Cloudy
70°F / 21°C 68°F / 20°C 94% 29.95 in
(1014 mb)
NNW 9.2 mph
(NNW 15 kph)
- 10SM
05:15
Mostly Cloudy
70°F / 21°C 70°F / 21°C 100% 29.95 in
(1014 mb)
NNW 10.4 mph
(NNW 17 kph)
- 10SM
04:55
Overcast
73°F / 23°C 72°F / 22°C 94% 29.95 in
(1014 mb)
NW 11.5 mph
(NW 19 kph)
- 10SM
04:35
Overcast
73°F / 23°C 72°F / 22°C 94% 29.92 in
(1013 mb)
W 10.4 mph
(W 17 kph)
- 10SM
04:15
Overcast
73°F / 23°C 72°F / 22°C 94% 29.92 in
(1013 mb)
SSW 6.9 mph
(SSW 11 kph)
- 10SM
03:55
Overcast
73°F / 23°C 72°F / 22°C 94% 29.92 in
(1013 mb)
SSW 3.5 mph
(SSW 6 kph)
- 10SM
03:35
Mostly Cloudy
72°F / 22°C 72°F / 22°C 100% 29.92 in
(1013 mb)
SSW 3.5 mph
(SSW 6 kph)
- 10SM
03:15
Mostly Cloudy
72°F / 22°C 72°F / 22°C 100% 29.92 in
(1013 mb)
SSW 3.5 mph
(SSW 6 kph)
- 10SM
02:55
Partly Cloudy
72°F / 22°C 72°F / 22°C 100% 29.92 in
(1013 mb)
SW 4.6 mph
(SW 7 kph)
- 10SM
02:35
Mostly Cloudy
72°F / 22°C 72°F / 22°C 100% 29.92 in
(1013 mb)
Calm - 10SM
02:15
Mostly Cloudy
72°F / 22°C 72°F / 22°C 100% 29.92 in
(1013 mb)
SW 4.6 mph
(SW 7 kph)
- 10SM
01:55
Partly Cloudy
72°F / 22°C 72°F / 22°C 100% 29.92 in
(1013 mb)
SW 4.6 mph
(SW 7 kph)
- 10SM
01:35
Clear
72°F / 22°C 72°F / 22°C 100% 29.92 in
(1013 mb)
SSE 3.5 mph
(SSE 6 kph)
- 10SM
01:15
Clear
72°F / 22°C 72°F / 22°C 100% 29.89 in
(1012 mb)
Calm - 10SM
00:55
Partly Cloudy
73°F / 23°C 72°F / 22°C 94% 29.92 in
(1013 mb)
SSW 3.5 mph
(SSW 6 kph)
- 10SM
00:35
Mostly Cloudy
73°F / 23°C 72°F / 22°C 94% 29.92 in
(1013 mb)
Calm - 10SM
00:15
Mostly Cloudy
Rain
73°F / 23°C 72°F / 22°C 94% 29.92 in
(1013 mb)
SW 3.5 mph
(SW 6 kph)
- 10SM
Time Weather Temperature Dewpoint Humidity Pressure Winds Precip Visibility


Weather for websites

WeatherForYou.com, LLC is not responsible for any damages or problems caused by this service. Current weather conditions are obtained from the closest station including government and personal stations which may have varying degrees of accuracy. Weather forecasts are derived from the NOAA NDFD. Like all things, this site belongs to Jesus Christ... He just trusts us to maintain it. If you have any questions or comments email webmaster@weatherforyou.com

Copyright © 2016, WeatherForYou.com LLC. All rights reserved.